Regional Weather Roundup
Issued by NWS Goodland, KS

Home | Current Version | Previous Version | Graphics & Text | Print | Product List | Glossary On
Versions: 1 2 3 4 5 6 7 8 9 10 11 12 13 14 15 16 17 18 19 20 21 22 23 24 25 26 27 28 29 30 31 32 33 34 35 36 37 38 39 40 41 42 43 44 45 46 47 48 49 50
000
ASUS43 KGLD 241259
RWRGLD

GOODLAND FORECAST AREA HOURLY WEATHER ROUNDUP
NATIONAL WEATHER SERVICE GOODLAND KS
600 AM MST WED DEC 24 2014

...OFFICIAL OBSERVATIONS...

CITY           SKY/WX    TMP DP  RH WIND       PRES   REMARKS
GOODLAND KS    PTCLDY    16  10  77 W10       29.97F WCI   4
HILL CITY KS   CLEAR     24  17  74 NW15      29.98S WCI  11
IMPERIAL NEB   PTCLDY    16   9  74 W9        29.94F
MCCOOK NEB     CLEAR     18  13  80 W12       29.97F WCI   5
AKRON CO       CLEAR     14   8  77 SW9       29.92F
BURLINGTON CO  PTCLDY    14   7  73 W12       29.97F WCI   0
LIMON CO       PTCLDY     6   2  83 N7        29.95F
$$

...UNOFFICIAL OBSERVATIONS...

CITY           SKY/WX    TMP DP  RH WIND       PRES   REMARKS
COLBY KS       CLEAR     16  16 100 W10       29.98F WCI   3
GOVE KS          N/A     22  32 100 MISG        N/A
NORTON KS      CLEAR     21  16  79 W15G21    29.96S WCI   8
SHARON SPRINGS   N/A     17  14  86 NW7         N/A
TRIBUNE KS     CLEAR     19  18  93 W9        30.02F
KIT CARSON CO    N/A     18  12  77 CALM        N/A
YUMA CO          N/A     13   6  74 W12         N/A  WCI  -1
$$



USA.gov is the U.S. government's official web portal to all federal, state and local government web resources and services.